• Processing (Info)

  • MPEC 2014-B10 : 2014 AZ52

    The following Minor Planet Electronic Circular may be linked-to from your own Web pages, but must not otherwise be redistributed electronically.

    A form allowing access to any MPEC is at the bottom of this page.


    Read MPEC 2014-B09 Read MPEC 2014-B11


    M.P.E.C. 2014-B10                                Issued 2014 Jan. 19, 17:06 UT
    
         The Minor Planet Electronic Circulars contain information on unusual
             minor planets and routine data on comets.  They are published
       on behalf of Commission 20 of the International Astronomical Union by the
              Minor Planet Center, Smithsonian Astrophysical Observatory,
                              Cambridge, MA 02138, U.S.A.
    
                 Prepared using the Tamkin Foundation Computer Network
    
                                  MPC@CFA.HARVARD.EDU
                URL https://www.minorplanetcenter.net/    ISSN 1523-6714
    
                                       2014 AZ52
    
    Observations:
         K14A52Z* S2014 01 09.87019 13 27 00.63 +06 33 00.4          18   RLEB010C51
         K14A52Z  s2014 01 09.87019 1 - 6359.8409 - 2522.0822 +  822.0866   EB010C51
         K14A52Z  S2014 01 10.00199 13 27 21.98 +06 33 33.4                LEB010C51
         K14A52Z  s2014 01 10.00199 1 - 6357.6290 - 2534.8644 +  800.0263   EB010C51
         K14A52Z  S2014 01 10.13378 13 27 43.25 +06 34 08.5                LEB010C51
         K14A52Z  s2014 01 10.13378 1 - 6355.3368 - 2547.6165 +  777.8824   EB010C51
         K14A52Z  S2014 01 10.26545 13 28 04.53 +06 34 44.6                LEB010C51
         K14A52Z  s2014 01 10.26545 1 - 6339.8021 - 2566.9536 +  838.0550   EB010C51
         K14A52Z  S2014 01 10.26558 13 28 04.63 +06 34 44.3                LEB010C51
         K14A52Z  s2014 01 10.26558 1 - 6352.9583 - 2560.3399 +  755.6841   EB010C51
         K14A52Z  S2014 01 10.39725 13 28 25.84 +06 35 18.3                LEB010C51
         K14A52Z  s2014 01 10.39725 1 - 6337.5806 - 2579.7186 +  815.8035   EB010C51
         K14A52Z  S2014 01 10.52904 13 28 46.99 +06 35 54.7                LEB010C51
         K14A52Z  s2014 01 10.52904 1 - 6335.2771 - 2592.4525 +  793.4676   EB010C51
         K14A52Z  S2014 01 10.66084 13 29 08.26 +06 36 29.5                LEB010C51
         K14A52Z  s2014 01 10.66084 1 - 6332.8922 - 2605.1549 +  771.0459   EB010C51
         K14A52Z  S2014 01 10.72667 13 29 18.83 +06 36 47.2                LEB010C51
         K14A52Z  s2014 01 10.72667 1 - 6325.1601 - 2614.7877 +  801.0015   EB010C51
         K14A52Z  S2014 01 10.79250 13 29 29.45 +06 37 04.8                LEB010C51
         K14A52Z  s2014 01 10.79250 1 - 6317.2893 - 2624.3525 +  830.9209   EB010C51
         K14A52Z  S2014 01 10.85846 13 29 40.06 +06 37 23.5                LEB010C51
         K14A52Z  s2014 01 10.85846 1 - 6322.7760 - 2627.4766 +  778.4347   EB010C51
         K14A52Z  S2014 01 10.92430 13 29 50.64 +06 37 41.7                LEB010C51
         K14A52Z  s2014 01 10.92430 1 - 6314.9898 - 2637.0611 +  808.2973   EB010C51
         K14A52Z  S2014 01 11.05609 13 30 11.72 +06 38 18.0                LEB010C51
         K14A52Z  s2014 01 11.05609 1 - 6312.6020 - 2649.7400 +  785.6207   EB010C51
         K14A52Z  S2014 01 11.12193 13 30 22.30 +06 38 36.8                LEB010C51
         K14A52Z  s2014 01 11.12193 1 - 6304.7549 - 2659.2849 +  815.4843   EB010C51
         K14A52Z  S2014 01 11.18789 13 30 32.86 +06 38 54.3                LEB010C51
         K14A52Z  s2014 01 11.18789 1 - 6310.1248 - 2662.3881 +  762.8929   EB010C51
         K14A52Z  S2014 01 11.25372 13 30 43.48 +06 39 13.5                LEB010C51
         K14A52Z  s2014 01 11.25372 1 - 6302.3574 - 2671.9552 +  792.7255   EB010C51
         K14A52Z  S2014 01 11.31956 13 30 53.94 +06 39 32.3                LEB010C51
         K14A52Z  s2014 01 11.31956 1 - 6294.4613 - 2681.4535 +  822.4983   EB010C51
         K14A52Z  S2014 01 11.38552 13 31 04.47 +06 39 49.5                LEB010C51
         K14A52Z  s2014 01 11.38552 1 - 6299.8799 - 2684.5901 +  769.8561   EB010C51
         K14A52Z  S2014 01 11.64898 13 31 46.62 +06 41 04.4                LEB010C51
         K14A52Z  s2014 01 11.64898 1 - 6281.7135 - 2716.2113 +  806.3005   EB010C51
         K14A52Z  S2014 01 12.04424 13 32 49.60 +06 42 58.5                LEB010C51
         K14A52Z  s2014 01 12.04424 1 - 6260.8472 - 2760.2477 +  819.1815   EB010C51
         K14A52Z  S2014 01 12.17603 13 33 10.45 +06 43 35.8                LEB010C51
         K14A52Z  s2014 01 12.17603 1 - 6258.3437 - 2772.8413 +  795.8900   EB010C51
         K14A52Z KC2014 01 19.41257 13 51 41.30 +07 24 53.5          20.0 RqEB010H36
         K14A52Z KC2014 01 19.46103 13 51 48.36 +07 25 11.9          20.0 RqEB010H36
    
    Observer details:
    C51 WISE.  Measurers A. K. Mainzer, J. M. Bauer, T. Grav, J. R. Masiero,
        J. W. Dailey, R. M. Cutri, E. L. Wright, C. Nugent, S. Sonnett,
        R. Stevenson.
    H36 Sandlot Observatory, Scranton.  Observer G. Hug.  0.56-m reflector + CCD.
    
    Orbital elements:
    2014 AZ52
    Epoch 2013 Nov. 4.0 TT = JDT 2456600.5                  MPC
    M 353.97275              (2000.0)            P               Q
    n   0.14204197     Peri.   18.13133     -0.75915711     -0.59075015
    a   3.6379628      Node   122.52194     +0.54985840     -0.80673275
    e   0.5932081      Incl.   18.91299     +0.34833350     -0.01401933
    P   6.94           H   17.7           G   0.15           U   8
    Residuals in seconds of arc
    140109 C51  0.2-  0.6+    140110 C51  0.5-  0.4-    140111 C51  0.4-  1.0+
    140110 C51  0.1+  0.8-    140110 C51  0.1+  0.7-    140111 C51  0.7-  0.4-
    140110 C51  0.5-  0.4-    140110 C51  0.3+  0.1-    140111 C51  0.3+  0.0
    140110 C51  0.3-  1.0+    140110 C51  0.4+  0.1+    140112 C51  0.6+  0.5+
    140110 C51  0.9+  0.5+    140111 C51  0.6-  0.0     140112 C51  0.7-  0.6-
    140110 C51  0.4+  0.5-    140111 C51  0.3-  0.6+    140119 H36  0.2-  0.4+
    140110 C51  1.0-  0.5+    140111 C51  0.4-  0.3-    140119 H36  0.0   0.4-
    140110 C51  0.2-  0.3-    140111 C51  0.8+  0.6+
    
    Ephemeris:
    2014 AZ52                a,e,i = 3.64, 0.59, 19                  q = 1.4799
    Date    TT    R. A. (2000) Decl.     Delta      r     Elong.  Phase     V
    2013 12 20    12 26 46.8 +05 51 13   1.2082  1.4804    84.3    41.4    20.6
    ...
    2014 01 04    13 10 48.3 +06 11 32   1.1336  1.4936    89.5    41.2    20.5
    ...
    2014 01 12    13 32 42.4 +06 42 45   1.1002  1.5078    92.5    40.7    20.4
    ...
    2014 01 18    13 48 10.6 +07 15 55   1.0779  1.5215    95.0    40.1    20.4
    2014 01 19    13 50 39.8 +07 22 16   1.0744  1.5240    95.4    40.0    20.4
    2014 01 20    13 53 07.5 +07 28 51   1.0709  1.5266    95.9    39.9    20.3
    ...
    2014 01 26    14 07 16.5 +08 13 12   1.0513  1.5437    98.6    39.1    20.3
    ...
    2014 02 03    14 24 19.4 +09 24 58   1.0283  1.5700   102.4    37.8    20.3
    ...
    2014 02 18    14 49 44.5 +12 12 42   0.9947  1.6296   110.5    34.6    20.2
    
    A. U. Tomatic                (C) Copyright 2014 MPC           M.P.E.C. 2014-B10
    

    Read MPEC 2014-B09 Read MPEC 2014-B11


    MPEC number:

    Enter an MPEC number in one of the following forms:

    • 1997-B01 (the full form)
    • J97B01 (the packed version of the full form)
    • B01 (the abbreviated form)